Satellite-Ground Cal/Val Site Overpasses Predictions

Prediction of Satellite NPP Overpassing Cal/Val Site: Antarctic Dome C

Ground Cal/Val Site Location: Latitude: -75.10, Longitude: 123.35; Satellite-Ground Site NADIR distance within 100 km.

Table of predicted overpasses for the next 14.0 days since TLE Epoch: 5/16/2019
Interval Starting Time Ending Time Minimum Distance Time Minimum Distance (km)
1 05/17/2019 14:42:18 05/17/2019 14:42:43 05/17/2019 14:42:31 50.10
2 05/18/2019 07:44:00 05/18/2019 07:44:20 05/18/2019 07:44:10 70.59
3 05/19/2019 07:25:07 05/19/2019 07:25:34 05/19/2019 07:25:21 37.26
4 05/21/2019 15:07:36 05/21/2019 15:07:42 05/21/2019 15:07:39 96.98
5 05/22/2019 14:48:35 05/22/2019 14:49:04 05/22/2019 14:48:50 14.20
6 05/24/2019 07:31:26 05/24/2019 07:31:55 05/24/2019 07:31:40 1.78
7 05/27/2019 14:54:54 05/27/2019 14:55:23 05/27/2019 14:55:08 22.45
8 05/28/2019 14:36:13 05/28/2019 14:36:28 05/28/2019 14:36:20 84.58
9 05/29/2019 07:37:45 05/29/2019 07:38:12 05/29/2019 07:37:58 35.87


NCC Satellite Cal/Val Overpasses Prediction Service
